AirNav   Everest Fuels
 
 620 users online  

86NC Craft Airport
Hertford, North Carolina, USA

GOING TO HERTFORD?


FAA INFORMATION EFFECTIVE 05 DECEMBER 2019

Location

FAA Identifier: 86NC
Lat/Long: 36-15-49.0000N 076-29-36.0000W
36-15.816667N 076-29.600000W
36.2636111,-76.4933333
(estimated)
Elevation: 14 ft. / 4 m (estimated)
Variation: 10W (2000)
From city: 5 miles N of HERTFORD, NC
Time zone: UTC -5 (UTC -4 during Daylight Saving Time)
Zip code: 27944

Airport Operations

Airport use: Private use. Permission required prior to landing
Activation date: 07/2002
Control tower: no
ARTCC: WASHINGTON CENTER
FSS: RALEIGH FLIGHT SERVICE STATION
Attendance: UNATNDD
Wind indicator: yes
Segmented circle: no

Airport Communications

WX AWOS-3 at EDE (15 nm S): 118.275 (252-482-0757)
WX ASOS at ECG (15 nm E): 124.375 (252-338-4750)

Nearby radio navigation aids

VOR radial/distance  VOR name  Freq  Var
ECGr278/15.4ELIZABETH CITY VOR/DME112.5007W
CVIr119/19.4COFIELD VORTAC114.6009W
FKNr146/36.8FRANKLIN VORTAC110.6009W

 
NDB name  Hdg/Dist  Freq  Var  ID
WOODVILLE280/9.425410WLLW .-.. .-.. .--

Airport Services

Runway Information

Runway 4/22

Dimensions: 2900 x 100 ft. / 884 x 30 m
Surface: turf
RUNWAY 4  RUNWAY 22
Traffic pattern: leftleft
Displaced threshold: no825 ft.
Obstructions: none50 ft. pline, 175 ft. from runway

Airport Ownership and Management from official FAA records

Ownership: Privately-owned
Owner: CRAIG D CRAFT
865 SWAMP RD
HERTFORD, NC 27944
Phone 252-426-2676
Manager: CRAIG D CRAFT
865 SWAMP RD
HERTFORD, NC 27944
Phone 252-426-2676

Airport Operational Statistics

Aircraft based on the field: 2
Single engine airplanes: 2
    

Additional Remarks

INTENSIVE AGRICULTURE OPNS INVOF ARPT.
OWNER DESIRES CHARTING.
FOR CD CTC NORFOLK APCH AT 757-464-0757.

Instrument Procedures

There are no published instrument procedures at 86NC.

Some nearby airports with instrument procedures:

KEDE - Northeastern Regional Airport (15 nm S)
KECG - Elizabeth City Coast Guard Air Station/Regional Airport (15 nm E)
KONX - Currituck County Regional Airport (25 nm E)
KCPK - Chesapeake Regional Airport (26 nm N)
KSFQ - Suffolk Executive Airport (26 nm N)
 
Loc | Ops | Rwys | IFR | FBO | Links
Com | Nav | Svcs | Stats | Notes
Area around 86NC (Craft Airport)
 
Road maps at: MapQuest Bing Google
 
Aerial photo
WARNING: Photo may not be current or correct
Aerial photo of 86NC (Craft Airport)
Do you have a better or more recent aerial photo of Craft Airport that you would like to share? If so, please send us your photo.

 
Sectional chart

 
Airport distance calculator
Flying to Craft Airport? Find the distance to fly.

From to 86NC

Sunrise and sunset
Times for 13-Dec-2019
 Local
(UTC-5)
 Zulu
(UTC)
Morning civil twilight06:4111:41
Sunrise07:1012:10
Sunset16:5121:51
Evening civil twilight17:1922:19

Current date and time
Zulu (UTC)  13-Dec-2019 12:06:06
Local (UTC-5)  13-Dec-2019 07:06:06
 
METAR
KECG 
15nm E 
131154Z 04006KT 10SM SCT040 SCT050 BKN120 11/09 A3029 RMK AO2 SLP255 T01060094 10111 20083 56020
KEDE 
15nm S 
131155Z AUTO 36003KT 7SM CLR 09/09 A3029 RMK AO2 T00880088 10092 20043
KONX 
24nm E 
131155Z AUTO 03005KT 7SM SCT040 BKN050 OVC120 10/10 A3029 RMK AO2 T01000100 10237 20000
KCPK 
26nm N 
131155Z AUTO 03004KT 10SM BKN007 OVC120 09/08 A3030 RMK AO2 T00890084 10095 21003
KSFQ 
26nm N 
131155Z AUTO 07004KT 7SM OVC006 09/09 A3031 RMK AO2 T00850085 10085 20005
TAF
KECG 
15nm E 
131128Z 1312/1412 06005KT P6SM SCT007 FM132100 03006KT 4SM -RA BR OVC025 FM140100 08006KT 4SM RA BR OVC007
NOTAMs
Click for the latest NOTAMs
NOTAMs are issued by the DoD/FAA and will open in a separate window not controlled by AirNav.

 

 
 

Would you like to see your business listed on this page?

 If your business provides an interesting product or service to pilots, flight crews, aircraft, or users of the Craft Airport, you should consider listing it here.  To start the listing process, click on the button below
 
Add a business
 

Other Pages about Craft Airport

Update a link
 
Copyright © AirNav, LLC. All rights reserved. Privacy Policy  Contact